Showing default

SHIYAN 12 02 (SY-12 02), 50322

Orbit data source: Space-Track

SHIYAN 12 02 (SY-12 02), 50322 is a payload satellite owned by CAST (CN) in GEO that was launched on Thu, 23 Dec 2021 UTC via a CHANG ZHENG 7A launch vehicle from the Wenchang Satellite Launch Center (WSC). Payload-class satellites include a variety of spacecraft equipped with specific instruments for various scientific and technological missions. These include communications satellites like Starlink; space stations such as the ISS; scientific satellites like the Hubble; Earth observation satellites from companies like Planet Labs, Umbra, and HawkEye 360; GPS; miniature CubeSats for education and research; and military/defense satellites.

Not visible in the next 10 days
Identifier
50322, 2021-129B
Orbit
GEO
Country
Flag of CNCN / PRC
Related business
Manufacturer
CAST
Mission
Operational Defense Technology
Bus & Motor
XYZ, Unknown motor
Mass
~3,000 kg wet, ~2,000 kg dry
Launch date (UTC)
2021-12-23 (4 years ago)
Launch vehicle
CHANG ZHENG 7A
Launch site
Wenchang Satellite Launch Center (WSC)
Object type
Payload
Rocket body
Debris
Shape & HBR
Box + 2 Pan, 4.5 m
Radar Cross Section
24.336 m², Large (>1 m²)

Expand to show TLE details & history
Last TLE update: 2 days ago

TLE from 2 days ago
0 SHIYAN 12 02 (SY-12 02)
1 50322U 21129B   26093.68361286  .00000154  00000-0  00000+0 0  9996
2 50322   3.4829  80.9202 0000467  11.8860  18.2553  1.00462099 15755
Epoch: 2026-04-03T16:24Z
TLE epoch observation values (Epoch: 2026-04-03T16:24:24.151Z)
Latitude
1.72606°
Longitude
32.90882°
Altitude
35,730.757 km
Speed
3.077 km/s
True Right ascension
07h 24m 05s
True Declination
1° 43' 28"
Sunlit
Object was in daylight at epoch
Visualization orbit readout
Latitude
Unknown
Longitude
Unknown
Altitude
Unknown
Speed
Unknown
Apparent Right ascension
Unknown
Apparent Declination
Unknown
Sunlit
N/A
Visualization observer readout
Local Sidereal Time
12:45:18
Azimuth
Unknown
Elevation
Unknown
Doppler factor
Unknown
Orbital elements
Apogee altitude
35,736.36 km
Perigee altitude
35,732.427 km
Semi-major axis
42,112.53 km
Eccentricity
0.00005
Inclination
3.4829°
RAAN
80.9202°
Arg. of periapsis
11.886°
True anomaly
18.25698°
Mean anomaly
18.2553°
Eccentric anomaly
18.25614°
Mean motion
0.25115 °/min
Orbital period
1,433.43 mins
BSTAR
0
Loading maneuver chart data...
Computing Atmospheric mass density...
Loading historical data...
Loading historical data...
Loading historical data...
Loading historical data...
Loading historical data...
Loading historical data...
Loading historical data...
Other satellites on launch #129 in the year 2021 (2021-12-23 UTC)

Documentation

Showing up to 5 results
|